| time (UTC) | temp F | wind direction | speed knots | gust knots | rain 1hr in | rain 24hr in | rain mn in | humidity % | barometer mb |
| 20260507064124 | 49 | 107 | 4.3 | 2.6 | 0.00 | 0.00 | 0.00 | 76 | 1017.0 |
| 20260507062523 | 49 | 107 | 4.3 | 2.6 | 0.00 | 0.00 | 0.00 | 76 | 1018.0 |
| 20260507060921 | 49 | 107 | 4.3 | 2.6 | 0.00 | 0.00 | 0.00 | 76 | 1018.0 |
| 20260507055320 | 49 | 107 | 4.3 | 2.6 | 0.00 | 0.00 | 0.00 | 76 | 1018.0 |
| 20260507053719 | 49 | 107 | 4.3 | 2.6 | 0.00 | 0.00 | 0.00 | 74 | 1018.0 |
| 20260507052119 | 50 | 107 | 4.3 | 2.6 | 0.00 | 0.00 | 0.00 | 74 | 1018.0 |
| 20260507050518 | 50 | 107 | 4.3 | 2.6 | 0.00 | 0.00 | 0.00 | 74 | 1018.0 |
| 20260507044917 | 50 | 107 | 4.3 | 2.6 | 0.00 | 0.00 | 0.00 | 74 | 1018.0 |
| 20260507043316 | 51 | 107 | 4.3 | 2.6 | 0.00 | 0.00 | 0.00 | 74 | 1018.0 |
| 20260507041715 | 49 | 111 | 6.1 | 3.5 | 0.00 | 0.00 | 0.00 | 74 | 1018.0 |
| 20260507040114 | 49 | 111 | 6.1 | 3.5 | 0.00 | 0.00 | 0.00 | 74 | 1018.0 |
| 20260507034514 | 50 | 111 | 6.1 | 3.5 | 0.00 | 0.00 | 0.00 | 74 | 1018.0 |
| 20260507032912 | 51 | 111 | 6.1 | 3.5 | 0.00 | 0.00 | 0.00 | 74 | 1018.0 |
| 20260507031311 | 52 | 111 | 6.1 | 3.5 | 0.00 | 0.00 | 0.00 | 74 | 1018.0 |
| 20260507025710 | 53 | 111 | 6.1 | 3.5 | 0.00 | 0.00 | 0.00 | 74 | 1018.0 |
| 20260507024109 | 54 | 111 | 6.1 | 3.5 | 0.00 | 0.00 | 0.00 | 74 | 1018.0 |
| 20260507022508 | 55 | 111 | 6.1 | 3.5 | 0.00 | 0.00 | 0.00 | 74 | 1017.0 |
| 20260507020907 | 50 | 280 | 7.0 | 0.0 | 0.00 | 0.00 | 0.00 | 70 | 1017.0 |
| 20260507015306 | 50 | 280 | 7.0 | 0.0 | 0.00 | 0.00 | 0.00 | 70 | 1017.0 |
| 20260507013704 | 50 | 280 | 7.0 | 0.0 | 0.00 | 0.00 | 0.00 | 70 | 1017.0 |
| 20260507012104 | 51 | 280 | 7.0 | 0.0 | 0.00 | 0.00 | 0.00 | 70 | 1016.0 |
| 20260507010503 | 51 | 280 | 7.0 | 0.0 | 0.00 | 0.00 | 0.00 | 70 | 1016.0 |
| 20260507004902 | 51 | 280 | 7.0 | 0.0 | 0.00 | 0.00 | 0.00 | 70 | 1016.0 |
| 20260507003301 | 52 | 280 | 7.0 | 0.0 | 0.00 | 0.00 | 0.00 | 70 | 1016.0 |
| 20260507001701 | 53 | 280 | 7.0 | 0.0 | 0.00 | 0.00 | 0.00 | 70 | 1015.0 |
| 20260507000100 | 54 | 280 | 7.0 | 0.0 | 0.00 | 0.00 | 0.00 | 70 | 1015.0 |
| 20260506234500 | 55 | 280 | 7.0 | 0.0 | 0.00 | 0.00 | 0.00 | 70 | 1015.0 |
| 20260506232859 | 56 | 280 | 7.0 | 0.0 | 0.00 | 0.00 | 0.00 | 70 | 1014.0 |
| 20260506231259 | 57 | 280 | 7.0 | 0.0 | 0.00 | 0.00 | 0.00 | 70 | 1014.0 |
| 20260506225658 | 58 | 280 | 7.0 | 0.0 | 0.00 | 0.00 | 0.00 | 70 | 1014.0 |
| 20260506224058 | 59 | 280 | 7.0 | 0.0 | 0.00 | 0.00 | 0.00 | 70 | 1013.0 |
| 20260506222457 | 60 | 280 | 7.0 | 0.0 | 0.00 | 0.00 | 0.00 | 69 | 1012.0 |
| 20260506220857 | 61 | 280 | 7.0 | 0.0 | 0.00 | 0.00 | 0.00 | 69 | 1012.0 |
| 20260506215256 | 62 | 280 | 7.0 | 0.0 | 0.00 | 0.00 | 0.00 | 69 | 1012.0 |
| 20260506213655 | 63 | 280 | 7.0 | 0.0 | 0.00 | 0.00 | 0.00 | 69 | 1012.0 |
| 20260506212054 | 63 | 280 | 7.0 | 0.0 | 0.00 | 0.00 | 0.00 | 69 | 1011.0 |
| 20260506210453 | 63 | 280 | 7.0 | 0.0 | 0.00 | 0.00 | 0.00 | 69 | 1011.0 |
| 20260506204852 | 64 | 280 | 7.0 | 0.0 | 0.00 | 0.00 | 0.00 | 69 | 1011.0 |
| 20260506203250 | 65 | 280 | 7.0 | 0.0 | 0.00 | 0.00 | 0.00 | 69 | 1011.0 |
| 20260506201650 | 66 | 280 | 7.0 | 0.0 | 0.00 | 0.00 | 0.00 | 69 | 1011.0 |
| 20260506200049 | 67 | 280 | 7.0 | 0.0 | 0.00 | 0.00 | 0.00 | 69 | 1011.0 |
| 20260506194449 | 68 | 280 | 7.0 | 0.0 | 0.00 | 0.00 | 0.00 | 69 | 1011.0 |
| 20260506192848 | 68 | 280 | 7.0 | 0.0 | 0.00 | 0.00 | 0.00 | 69 | 1012.0 |
| 20260506191246 | 69 | 280 | 7.0 | 0.0 | 0.00 | 0.00 | 0.00 | 69 | 1012.0 |
| 20260506185641 | 69 | 320 | 7.0 | 0.0 | 0.00 | 0.00 | 0.00 | 69 | 1012.0 |
| 20260506184040 | 69 | 320 | 7.0 | 0.0 | 0.00 | 0.00 | 0.00 | 69 | 1012.0 |
| 20260506182440 | 64 | 290 | 7.0 | 0.0 | 0.00 | 0.00 | 0.00 | 76 | 1013.0 |
| 20260506180839 | 65 | 290 | 7.0 | 0.0 | 0.00 | 0.00 | 0.00 | 76 | 1013.0 |
| 20260506175239 | 65 | 290 | 7.0 | 0.0 | 0.00 | 0.00 | 0.00 | 76 | 1013.0 |
| 20260506173636 | 65 | 290 | 7.0 | 0.0 | 0.00 | 0.00 | 0.00 | 76 | 1013.0 |
| 20260506172035 | 65 | 290 | 7.0 | 0.0 | 0.00 | 0.00 | 0.00 | 76 | 1014.0 |
| 20260506170434 | 65 | 300 | 7.0 | 0.0 | 0.00 | 0.00 | 0.00 | 76 | 1014.0 |
| 20260506164833 | 65 | 300 | 7.0 | 0.0 | 0.00 | 0.00 | 0.00 | 76 | 1014.0 |
| 20260506163232 | 65 | 300 | 7.0 | 0.0 | 0.00 | 0.00 | 0.00 | 75 | 1014.0 |
| 20260506161632 | 65 | 300 | 7.0 | 0.0 | 0.00 | 0.00 | 0.00 | 74 | 1015.0 |
| 20260506160031 | 65 | 290 | 4.3 | 0.0 | 0.00 | 0.00 | 0.00 | 73 | 1015.0 |
| 20260506154431 | 65 | 290 | 4.3 | 0.0 | 0.00 | 0.00 | 0.00 | 73 | 1015.0 |
| 20260506152830 | 65 | 0 | 0.9 | 0.0 | 0.00 | 0.00 | 0.00 | 73 | 1016.0 |
| 20260506151230 | 65 | 0 | 0.9 | 0.0 | 0.00 | 0.00 | 0.00 | 73 | 1016.0 |
| 20260506145628 | 66 | 0 | 1.7 | 0.0 | 0.00 | 0.00 | 0.00 | 73 | 1016.0 |
| 20260506144028 | 67 | 0 | 1.7 | 0.0 | 0.00 | 0.00 | 0.00 | 73 | 1016.0 |
| 20260506142425 | 61 | 302 | 3.5 | 3.5 | 0.00 | 0.00 | 0.00 | 82 | 1017.0 |
| 20260506140825 | 61 | 302 | 3.5 | 3.5 | 0.00 | 0.00 | 0.00 | 82 | 1017.0 |
| 20260506135222 | 61 | 130 | 2.6 | 0.0 | 0.00 | 0.00 | 0.00 | 82 | 1017.0 |
| 20260506133622 | 60 | 130 | 2.6 | 0.0 | 0.00 | 0.00 | 0.00 | 82 | 1017.0 |
| 20260506132021 | 60 | 130 | 2.6 | 0.0 | 0.00 | 0.00 | 0.00 | 82 | 1017.0 |
| 20260506130419 | 61 | 80 | 2.6 | 0.0 | 0.00 | 0.00 | 0.00 | 82 | 1017.0 |
| 20260506124818 | 62 | 80 | 2.6 | 0.0 | 0.00 | 0.00 | 0.00 | 82 | 1017.0 |
| 20260506123218 | 55 | 0 | 0.9 | 0.0 | 0.00 | 0.00 | 0.00 | 94 | 1017.0 |
| 20260506121617 | 56 | 0 | 0.9 | 0.0 | 0.00 | 0.00 | 0.00 | 94 | 1017.0 |
| 20260506120017 | 57 | 0 | 1.7 | 0.0 | 0.00 | 0.00 | 0.00 | 94 | 1017.0 |
| 20260506114416 | 58 | 0 | 1.7 | 0.0 | 0.00 | 0.00 | 0.00 | 94 | 1017.0 |
| 20260506112816 | 49 | 109 | 3.5 | 2.6 | 0.00 | 0.00 | 0.00 | 92 | 1017.0 |
| 20260506111215 | 50 | 109 | 3.5 | 2.6 | 0.00 | 0.00 | 0.00 | 92 | 1017.0 |
| 20260506105615 | 51 | 109 | 3.5 | 2.6 | 0.00 | 0.00 | 0.00 | 92 | 1017.0 |
| 20260506104014 | 52 | 109 | 3.5 | 2.6 | 0.00 | 0.00 | 0.00 | 92 | 1017.0 |
| 20260506102414 | 49 | 100 | 2.6 | 0.0 | 0.00 | 0.00 | 0.00 | 92 | 1016.0 |
| 20260506100813 | 50 | 100 | 2.6 | 0.0 | 0.00 | 0.00 | 0.00 | 92 | 1016.0 |
| 20260506095213 | 51 | 100 | 2.6 | 0.0 | 0.00 | 0.00 | 0.00 | 92 | 1016.0 |
| 20260506093611 | 52 | 100 | 2.6 | 0.0 | 0.00 | 0.00 | 0.00 | 92 | 1016.0 |
| 20260506092010 | 53 | 100 | 2.6 | 0.0 | 0.00 | 0.00 | 0.00 | 92 | 1016.0 |
| 20260506090409 | 54 | 100 | 2.6 | 0.0 | 0.00 | 0.00 | 0.00 | 92 | 1016.0 |
| 20260506084808 | 55 | 100 | 2.6 | 0.0 | 0.00 | 0.00 | 0.00 | 92 | 1016.0 |
| 20260506083208 | 56 | 100 | 2.6 | 0.0 | 0.00 | 0.00 | 0.00 | 92 | 1016.0 |
| 20260506081608 | 57 | 100 | 2.6 | 0.0 | 0.00 | 0.00 | 0.00 | 91 | 1016.0 |
| 20260506072806 | 59 | 100 | 2.6 | 0.0 | 0.00 | 0.00 | 0.00 | 92 | 1016.0 |
| 20260506071205 | 59 | 0 | 0.9 | 0.0 | 0.00 | 0.00 | 0.00 | 94 | 1016.0 |